Tracking 19212 objects as of 16-Jul-2018
HD Live streaming from Space Station
objects crossing your sky now

FENGYUN 1C DEB

Track FENGYUN 1C DEB now!
10-day predictions


NORAD ID: 31660
Int'l Code: 1999-025CBS
Perigee: 749.2 km
Apogee: 914.6 km
Inclination: 98.7 °
Period: 101.4 minutes
Semi major axis: 7202 km
RCS: 0.0107 m2 (small)
Launch date: May 10, 1999
Source: People's Republic of China (PRC)
Launch site: Taiyaun Space Center, China (TSC)

Note: This is SATELLITE DEBRIS
aabbcc
Your satellite tracking list
Your tracking list is empty




NASA's NSSDC Master Catalog

Two Line Element Set (TLE):
1 31660U 99025CBS 18196.34652348 +.00000212 +00000-0 +11143-3 0  9999
2 31660 098.6924 236.0217 0114759 120.1732 241.0872 14.20172360282125
Source of the keplerian elements: AFSPC